Flag for France Weather past 2 weeks in Tours, France

Now
45 °F

Cloudy.


Feels Like: 39 °F
Forecast: 42 / 47 °F
Wind: 10 mph from Southwest

Location: Tours Airport

Current Time: Jan 28, 2015 at 11:03:49 AM

Latest Report: Jan 28, 2015 at 10:30 AM


Visibility: N/A

Pressure: 30.09 "Hg

Humidity: 87%

Dew point: 41 °F

Location of ToursLocation

Historic Weather in Tours — Graph

°F

Tours temperature yesterday

Maximum temperature yesterday: 46 °F (at 2:30 PM)
Minimum temperature yesterday: 36 °F (at 7:30 AM)
Average temperature yesterday: 41 °F

Past Weeks' High & Low Weather Summary

 TemperatureHumidityPressure
High52 °F (Jan 13, 2:30 PM)100% (Jan 16, 2:30 AM)30.54 "Hg (Jan 16, 2:30 AM)
Low28 °F (Jan 22, 7:00 AM)61% (Jan 24, 5:00 PM)29.59 "Hg (Jan 15, 2:30 PM)
Average39 °F87%30.05 "Hg
* Reported Jan 13 9:00 AM — Jan 28 9:30 AM, Tours, Weather by CustomWeather, © 2014

Note: Actual official high and low records may vary slightly from our data, if they occured in-between our weather recording intervals... More about our weather records

Advertising

Tours weather history for previous 24 hours

 ConditionsComfort  
Time TempWeatherWind HumidityBarometerVisibility
9:30 AM
Jan 28
43 °FMostly cloudy.10 mph87%30.12 "HgN/A
9:00 AM43 °FFog.9 mph87%30.12 "Hg1 mi
8:30 AM43 °FBroken clouds.8 mph87%30.12 "HgN/A
8:00 AM43 °FOvercast.8 mph87%30.15 "HgN/A
7:30 AM43 °FOvercast.9 mph87%30.15 "HgN/A
7:00 AM43 °FLight rain. Partly cloudy.8 mph87%30.15 "HgN/A
6:30 AM43 °FPartly cloudy.8 mph87%30.18 "HgN/A
6:00 AM43 °FPassing clouds.8 mph87%30.18 "HgN/A
5:30 AM43 °FPassing clouds.8 mph87%30.18 "HgN/A
5:00 AM43 °FPassing clouds.7 mph87%30.21 "HgN/A
4:30 AM43 °FPassing clouds.7 mph87%30.21 "HgN/A
4:00 AM41 °FPassing clouds.5 mph93%30.24 "HgN/A
3:30 AM41 °FOvercast.6 mph93%30.21 "HgN/A
3:00 AM41 °FOvercast.5 mph93%30.24 "HgN/A
2:30 AM43 °FMostly cloudy.5 mph87%30.27 "HgN/A
2:00 AM43 °FMostly cloudy.6 mph87%30.30 "HgN/A
1:30 AM43 °FOvercast.6 mph87%30.30 "HgN/A
1:00 AM41 °FPassing clouds.3 mph93%30.30 "HgN/A
12:00 AM41 °FPassing clouds.3 mph93%30.33 "HgN/A
11:00 PM
Jan 27
43 °FPassing clouds.5 mph87%30.33 "HgN/A
10:30 PM43 °FPassing clouds.5 mph87%30.36 "HgN/A
10:00 PM43 °FPassing clouds.3 mph87%30.36 "HgN/A
9:30 PM43 °FPassing clouds.3 mph87%30.36 "HgN/A
9:00 PM43 °FPassing clouds.2 mph81%30.36 "HgN/A
8:30 PM43 °FPassing clouds.2 mph81%30.36 "HgN/A
8:00 PM43 °FPassing clouds.2 mph81%30.36 "HgN/A
7:30 PM43 °FLight rain. Passing clouds.5 mph81%30.36 "HgN/A
7:00 PM43 °FLight rain. Passing clouds.6 mph81%30.36 "HgN/A
6:30 PM43 °FOvercast.3 mph81%30.36 "HgN/A
6:00 PM43 °FOvercast.5 mph81%30.36 "HgN/A
5:30 PM45 °FPartly sunny.5 mph76%30.36 "HgN/A
5:00 PM45 °FBroken clouds.7 mph76%30.36 "HgN/A
4:30 PM46 °FMostly cloudy.5 mph71%30.36 "HgN/A
4:00 PM46 °FBroken clouds.7 mph71%30.36 "HgN/A
3:30 PM46 °FClear.8 mph71%30.36 "HgN/A
3:00 PM46 °FBroken clouds.8 mph71%30.36 "HgN/A
2:30 PM46 °FScattered clouds.8 mph71%30.36 "HgN/A
2:00 PM45 °FMostly cloudy.8 mph76%30.39 "HgN/A
1:30 PM45 °FOvercast.6 mph81%30.39 "HgN/A
1:00 PM45 °FClear.7 mph76%30.39 "HgN/A
12:30 PM43 °FClear.8 mph87%30.39 "HgN/A
12:00 PM43 °FClear.5 mph81%30.42 "HgN/A
11:30 AM41 °FClear.5 mph87%30.42 "HgN/A
11:00 AM39 °FClear.5 mph93%30.42 "HgN/A
Weather by CustomWeather, © 2014

See weather overviewHow to use our weather pages